Location: Unspecified
(0.0000°N, 0.0000°E)
Time: 01:38:15
(UTC+00:00)

SRMSAT - Pass Details

Date: 02 April 2019
Orbit: 848 x 866 km, 20.0° (Epoch: 19 July)

Event Time Altitude Azimuth Distance (km) Brightness Sun altitude
Exits shadow 04:40:30 - 331° (NNW) 2,691 ? -20.7°
Reaches altitude 10° 04:41:39 10° 340° (NNW) 2,458 ? -20.5°
Maximum altitude 04:44:45 14° 12° (NNE) 2,159 ? -19.7°
Drops below altitude 10° 04:47:53 10° 44° (NE) 2,465 ? -18.9°
Sets 04:51:43 0° 68° (ENE) 3,406 ? -17.9°
